Weather History for Iranshahr, Iran

Change the Weather History Date:

Sunday, February 17, 2013

  Actual Average Record
Temperature  
Mean Temperature 64 °F -  
Max Temperature 77 °F 80 °F - ()
Min Temperature 51 °F 54 °F - ()
Degree Days  
Heating Degree Days 1    
Growing Degree Days 14 (Base 50)    
Moisture  
Dew Point 27 °F    
Average Humidity 22    
Maximum Humidity 35    
Minimum Humidity 9    
Precipitation  
Precipitation 0.00 in 0.03 in - ()
Sea Level Pressure  
Sea Level Pressure 29.89 in    
Wind  
Wind Speed 3 mph ()    
Max Wind Speed 7 mph    
Max Gust Speed -    
Visibility 7.0 miles    
Events      
T = Trace of Precipitation, MM = Missing Value Source: Averaged Metar Reports

Daily Weather History Graph

Daily Weather History Graph

Search for Another Location

Airport:

Trip Planner

Search our weather history database for the weather conditions in past years. The results will help you decide how hot, cold, wet, or windy it might be!

Date:

Astronomy

Feb. 17, 2013 Rise Set
Actual Time 6:02 AM IRST 5:20 PM IRST
Civil Twilight 5:38 AM IRST 5:44 PM IRST
Nautical Twilight 5:11 AM IRST 6:11 PM IRST
Astronomical Twilight 4:44 AM IRST 6:38 PM IRST
Moon 10:19 AM IRST (2/17) 12:05 AM IRST (2/18)
Length of Visible Light 12h 05m
Length of Day
11h 17m
Waxing Crescent, 45% of the Moon is Illuminated
Feb 17
Waxing Crescent
Feb 18
First Quarter
Feb 25
Full
Mar 5
Last Quarter
Mar 11
New

Hourly Weather History & Observations

Time (IRST) Temp. Dew Point Humidity Pressure Visibility Wind Dir Wind Speed Gust Speed Precip Events Conditions
12:30 AM 57.2 °F 23.0 °F 27% 29.95 in - North 4.6 mph - N/A   Clear
3:30 AM 53 °F 24 °F 20% 29.88 in 6 mi North 4.5 mph - -  
5:30 AM 51.8 °F 24.8 °F 35% 29.92 in - North 4.6 mph - N/A   Clear
6:30 AM 51.8 °F 23.0 °F 33% 29.95 in - North 4.6 mph - N/A   Clear
7:30 AM 57.2 °F 26.6 °F 31% 29.95 in - North 6.9 mph - N/A   Clear
8:30 AM 62.6 °F 24.8 °F 24% 29.95 in - Calm Calm - N/A   Clear
9:30 AM 66 °F 27 °F 13% 29.93 in 9 mi SW 4.5 mph - -   Scattered Clouds
10:30 AM 71.6 °F 28.4 °F 20% 29.95 in - WSW 4.6 mph - N/A   Clear
11:30 AM 71.6 °F 26.6 °F 19% 29.92 in - Calm Calm - N/A   Clear
12:30 PM 75.2 °F 26.6 °F 17% 29.89 in - South 4.6 mph - N/A   Clear
1:30 PM 75.2 °F 30.2 °F 19% 29.86 in - SSE 4.6 mph - N/A   Clear
2:30 PM 77.0 °F 28.4 °F 17% 29.86 in - SW 4.6 mph - N/A   Clear
3:30 PM 77 °F 29 °F 9% 29.79 in 7 mi SSW 4.5 mph - -   Clear
3:30 PM 77.0 °F 28.4 °F 17% 29.83 in - SSW 4.6 mph - N/A   Clear
4:30 PM 77.0 °F 28.4 °F 17% 29.83 in - SW 4.6 mph - N/A   Clear
5:30 PM 75.2 °F 28.4 °F 18% 29.83 in - Calm Calm - N/A   Clear
6:30 PM 71.6 °F 28.4 °F 20% 29.86 in - Calm Calm - N/A   Clear
7:30 PM 68.0 °F 30.2 °F 24% 29.86 in - Calm Calm - N/A   Clear
8:30 PM 66.2 °F 28.4 °F 24% 29.89 in - NW 4.6 mph - N/A   Clear
9:30 PM 66 °F 29 °F 14% 29.85 in 6 mi NNW 4.5 mph - -  
9:30 PM 66.2 °F 28.4 °F 24% 29.89 in - NNW 4.6 mph - N/A   Clear
10:30 PM 64.4 °F 30.2 °F 28% 29.89 in - NNW 4.6 mph - N/A   Clear
11:30 PM 60.8 °F 30.2 °F 31% 29.89 in - North 4.6 mph - N/A   Clear